Location: Biltmore Gardens
(41.6070°N, 83.4666°W)
Time: 14:17:29
(UTC+00:00)

Cosmos 1607 - Pass Details

Date: 14 July 2020
Orbit: 913 x 989 km, 65.0° (Epoch: 04 August)

Event Time Altitude Azimuth Distance (km) Brightness Sun altitude
Exits shadow 05:32:17 48° 244° (WSW) 1,213 4.3 -26.8°
Maximum altitude 05:33:57 67° 306° (NW) 1,022 4.1 -26.8°
Drops below altitude 10° 05:40:14 10° 28° (NNE) 2,701 7.1 -26.8°
Sets 05:42:51 0° 32° (NNE) 3,661 7.9 -26.8°
